Simultaneous Nadir Overpasses (SNOs) Predictions

Prediction of SNOs between AQUA and METOP-A Satellite Orbit:

Table of predicted SNOs for the next 14.0 days since TLE Epoch: 2/22/2020
Index Date (AQUA) Time (AQUA) Lat,Lon (AQUA) SZA (AQUA ) Date (METOP-A) Time (METOP-A) Lat,Lon (METOP-A) SZA (METOP-A ) Distance(km) Time Diff (sec)
1 02/24/2020 14:11:24 -75.93, 136.08 94.20 02/24/2020 14:10:52 -75.90, 136.04 94.22 3.43 32
2 02/24/2020 15:00:51 75.95, -56.33 85.81 02/24/2020 15:01:31 75.95, -56.46 85.82 3.73 40
3 02/27/2020 09:45:41 -75.94,-157.51 95.25 02/27/2020 09:45:14 -75.96,-157.43 95.22 3.12 27
4 02/27/2020 10:35:09 76.00, 9.93 84.82 02/27/2020 10:35:53 76.01, 10.07 84.81 3.84 44
5 03/01/2020 05:19:58 -75.95, -91.12 96.30 03/01/2020 05:19:37 -75.96, -91.05 96.29 2.27 21
6 03/01/2020 06:09:26 76.02, 76.31 83.77 03/01/2020 06:10:16 76.01, 76.44 83.74 3.49 50
7 03/04/2020 00:04:36 75.41, 169.28 82.01 03/04/2020 00:03:31 75.32, 166.00 82.15 92.55 65
8 03/04/2020 00:54:14 -75.97, -24.75 97.36 03/04/2020 00:53:59 -75.97, -24.68 97.37 1.76 15
9 03/04/2020 01:43:41 75.99, 142.83 82.65 03/04/2020 01:44:38 76.02, 142.80 82.66 2.57 57
10 03/06/2020 19:38:57 75.63,-124.93 81.17 03/06/2020 19:37:48 75.61,-126.79 81.28 51.32 69
11 03/06/2020 20:28:30 -75.95, 41.76 98.49 03/06/2020 20:28:22 -75.97, 41.68 98.46 3.00 8




NCC Satellite Simultaneous Nadir Overpasses (SNOs) Prediction Service
